Index of /20260419/WXO-DD/model_rdps/10km/18/053
Name Last modified Size Description
Parent Directory -
20260419T18Z_MSC_RDPS_AbsoluteVorticity_IsbL-0250_RLatLon0.09_PT053H.grib2 2026-04-19 20:56 604K
20260419T18Z_MSC_RDPS_AbsoluteVorticity_IsbL-0500_RLatLon0.09_PT053H.grib2 2026-04-19 20:56 567K
20260419T18Z_MSC_RDPS_AbsoluteVorticity_IsbL-0700_RLatLon0.09_PT053H.grib2 2026-04-19 20:56 622K
20260419T18Z_MSC_RDPS_AbsoluteVorticity_IsbL-0850_RLatLon0.09_PT053H.grib2 2026-04-19 20:56 790K
20260419T18Z_MSC_RDPS_AirTemp_AGL-120m_RLatLon0.09_PT053H.grib2 2026-04-19 20:56 379K
20260419T18Z_MSC_RDPS_AirTemp_AGL-2m_RLatLon0.09_PT053H.grib2 2026-04-19 20:56 633K
20260419T18Z_MSC_RDPS_AirTemp_AGL-40m_RLatLon0.09_PT053H.grib2 2026-04-19 20:56 389K
20260419T18Z_MSC_RDPS_AirTemp_AGL-80m_RLatLon0.09_PT053H.grib2 2026-04-19 20:56 383K
20260419T18Z_MSC_RDPS_AirTemp_IsbL-0001_RLatLon0.09_PT053H.grib2 2026-04-19 20:56 308K
20260419T18Z_MSC_RDPS_AirTemp_IsbL-0005_RLatLon0.09_PT053H.grib2 2026-04-19 20:56 335K
20260419T18Z_MSC_RDPS_AirTemp_IsbL-0010_RLatLon0.09_PT053H.grib2 2026-04-19 20:56 310K
20260419T18Z_MSC_RDPS_AirTemp_IsbL-0020_RLatLon0.09_PT053H.grib2 2026-04-19 20:56 331K
20260419T18Z_MSC_RDPS_AirTemp_IsbL-0030_RLatLon0.09_PT053H.grib2 2026-04-19 20:56 353K
20260419T18Z_MSC_RDPS_AirTemp_IsbL-0050_RLatLon0.09_PT053H.grib2 2026-04-19 20:56 333K
20260419T18Z_MSC_RDPS_AirTemp_IsbL-0100_RLatLon0.09_PT053H.grib2 2026-04-19 20:56 439K
20260419T18Z_MSC_RDPS_AirTemp_IsbL-0150_RLatLon0.09_PT053H.grib2 2026-04-19 20:56 433K
20260419T18Z_MSC_RDPS_AirTemp_IsbL-0175_RLatLon0.09_PT053H.grib2 2026-04-19 20:56 429K
20260419T18Z_MSC_RDPS_AirTemp_IsbL-0200_RLatLon0.09_PT053H.grib2 2026-04-19 20:56 431K
20260419T18Z_MSC_RDPS_AirTemp_IsbL-0225_RLatLon0.09_PT053H.grib2 2026-04-19 20:56 424K
20260419T18Z_MSC_RDPS_AirTemp_IsbL-0250_RLatLon0.09_PT053H.grib2 2026-04-19 20:56 422K
20260419T18Z_MSC_RDPS_AirTemp_IsbL-0275_RLatLon0.09_PT053H.grib2 2026-04-19 20:56 402K
20260419T18Z_MSC_RDPS_AirTemp_IsbL-0300_RLatLon0.09_PT053H.grib2 2026-04-19 20:56 407K
20260419T18Z_MSC_RDPS_AirTemp_IsbL-0350_RLatLon0.09_PT053H.grib2 2026-04-19 20:56 423K
20260419T18Z_MSC_RDPS_AirTemp_IsbL-0400_RLatLon0.09_PT053H.grib2 2026-04-19 20:56 394K
20260419T18Z_MSC_RDPS_AirTemp_IsbL-0450_RLatLon0.09_PT053H.grib2 2026-04-19 20:56 404K
20260419T18Z_MSC_RDPS_AirTemp_IsbL-0500_RLatLon0.09_PT053H.grib2 2026-04-19 20:56 417K
20260419T18Z_MSC_RDPS_AirTemp_IsbL-0550_RLatLon0.09_PT053H.grib2 2026-04-19 20:56 436K
20260419T18Z_MSC_RDPS_AirTemp_IsbL-0600_RLatLon0.09_PT053H.grib2 2026-04-19 20:56 453K
20260419T18Z_MSC_RDPS_AirTemp_IsbL-0650_RLatLon0.09_PT053H.grib2 2026-04-19 20:56 466K
20260419T18Z_MSC_RDPS_AirTemp_IsbL-0700_RLatLon0.09_PT053H.grib2 2026-04-19 20:56 492K
20260419T18Z_MSC_RDPS_AirTemp_IsbL-0750_RLatLon0.09_PT053H.grib2 2026-04-19 20:56 532K
20260419T18Z_MSC_RDPS_AirTemp_IsbL-0800_RLatLon0.09_PT053H.grib2 2026-04-19 20:56 465K
20260419T18Z_MSC_RDPS_AirTemp_IsbL-0850_RLatLon0.09_PT053H.grib2 2026-04-19 20:56 507K
20260419T18Z_MSC_RDPS_AirTemp_IsbL-0875_RLatLon0.09_PT053H.grib2 2026-04-19 20:56 516K
20260419T18Z_MSC_RDPS_AirTemp_IsbL-0900_RLatLon0.09_PT053H.grib2 2026-04-19 20:56 518K
20260419T18Z_MSC_RDPS_AirTemp_IsbL-0925_RLatLon0.09_PT053H.grib2 2026-04-19 20:56 519K
20260419T18Z_MSC_RDPS_AirTemp_IsbL-0950_RLatLon0.09_PT053H.grib2 2026-04-19 20:56 523K
20260419T18Z_MSC_RDPS_AirTemp_IsbL-0970_RLatLon0.09_PT053H.grib2 2026-04-19 20:56 526K
20260419T18Z_MSC_RDPS_AirTemp_IsbL-0985_RLatLon0.09_PT053H.grib2 2026-04-19 20:56 520K
20260419T18Z_MSC_RDPS_AirTemp_IsbL-1000_RLatLon0.09_PT053H.grib2 2026-04-19 20:56 504K
20260419T18Z_MSC_RDPS_AirTemp_IsbL-1015_RLatLon0.09_PT053H.grib2 2026-04-19 20:56 499K
20260419T18Z_MSC_RDPS_Albedo_Sfc_RLatLon0.09_PT053H.grib2 2026-04-19 20:56 160K
20260419T18Z_MSC_RDPS_CAPE_Sfc_RLatLon0.09_PT053H.grib2 2026-04-19 20:56 1.8M
20260419T18Z_MSC_RDPS_CIN_Sfc_RLatLon0.09_PT053H.grib2 2026-04-19 20:56 1.2M
20260419T18Z_MSC_RDPS_CloudWater_EAtm_RLatLon0.09_PT053H.grib2 2026-04-19 20:56 219K
20260419T18Z_MSC_RDPS_ConvectivePrecip-Accum_Sfc_RLatLon0.09_PT053H.grib2 2026-04-19 20:56 1.1M
20260419T18Z_MSC_RDPS_DewPointDepression_AGL-2m_RLatLon0.09_PT053H.grib2 2026-04-19 20:56 419K
20260419T18Z_MSC_RDPS_DewPointDepression_IsbL-0001_RLatLon0.09_PT053H.grib2 2026-04-19 20:56 193
20260419T18Z_MSC_RDPS_DewPointDepression_IsbL-0005_RLatLon0.09_PT053H.grib2 2026-04-19 20:56 193
20260419T18Z_MSC_RDPS_DewPointDepression_IsbL-0010_RLatLon0.09_PT053H.grib2 2026-04-19 20:56 193
20260419T18Z_MSC_RDPS_DewPointDepression_IsbL-0020_RLatLon0.09_PT053H.grib2 2026-04-19 20:56 193
20260419T18Z_MSC_RDPS_DewPointDepression_IsbL-0030_RLatLon0.09_PT053H.grib2 2026-04-19 20:56 193
20260419T18Z_MSC_RDPS_DewPointDepression_IsbL-0050_RLatLon0.09_PT053H.grib2 2026-04-19 20:56 103K
20260419T18Z_MSC_RDPS_DewPointDepression_IsbL-0100_RLatLon0.09_PT053H.grib2 2026-04-19 20:56 125K
20260419T18Z_MSC_RDPS_DewPointDepression_IsbL-0150_RLatLon0.09_PT053H.grib2 2026-04-19 20:56 153K
20260419T18Z_MSC_RDPS_DewPointDepression_IsbL-0175_RLatLon0.09_PT053H.grib2 2026-04-19 20:56 197K
20260419T18Z_MSC_RDPS_DewPointDepression_IsbL-0200_RLatLon0.09_PT053H.grib2 2026-04-19 20:56 237K
20260419T18Z_MSC_RDPS_DewPointDepression_IsbL-0225_RLatLon0.09_PT053H.grib2 2026-04-19 20:56 267K
20260419T18Z_MSC_RDPS_DewPointDepression_IsbL-0250_RLatLon0.09_PT053H.grib2 2026-04-19 20:56 303K
20260419T18Z_MSC_RDPS_DewPointDepression_IsbL-0275_RLatLon0.09_PT053H.grib2 2026-04-19 20:56 311K
20260419T18Z_MSC_RDPS_DewPointDepression_IsbL-0300_RLatLon0.09_PT053H.grib2 2026-04-19 20:56 332K
20260419T18Z_MSC_RDPS_DewPointDepression_IsbL-0350_RLatLon0.09_PT053H.grib2 2026-04-19 20:56 340K
20260419T18Z_MSC_RDPS_DewPointDepression_IsbL-0400_RLatLon0.09_PT053H.grib2 2026-04-19 20:56 352K
20260419T18Z_MSC_RDPS_DewPointDepression_IsbL-0450_RLatLon0.09_PT053H.grib2 2026-04-19 20:56 361K
20260419T18Z_MSC_RDPS_DewPointDepression_IsbL-0500_RLatLon0.09_PT053H.grib2 2026-04-19 20:56 373K
20260419T18Z_MSC_RDPS_DewPointDepression_IsbL-0550_RLatLon0.09_PT053H.grib2 2026-04-19 20:56 391K
20260419T18Z_MSC_RDPS_DewPointDepression_IsbL-0600_RLatLon0.09_PT053H.grib2 2026-04-19 20:56 402K
20260419T18Z_MSC_RDPS_DewPointDepression_IsbL-0650_RLatLon0.09_PT053H.grib2 2026-04-19 20:56 398K
20260419T18Z_MSC_RDPS_DewPointDepression_IsbL-0700_RLatLon0.09_PT053H.grib2 2026-04-19 20:56 404K
20260419T18Z_MSC_RDPS_DewPointDepression_IsbL-0750_RLatLon0.09_PT053H.grib2 2026-04-19 20:56 426K
20260419T18Z_MSC_RDPS_DewPointDepression_IsbL-0800_RLatLon0.09_PT053H.grib2 2026-04-19 20:56 459K
20260419T18Z_MSC_RDPS_DewPointDepression_IsbL-0850_RLatLon0.09_PT053H.grib2 2026-04-19 20:56 474K
20260419T18Z_MSC_RDPS_DewPointDepression_IsbL-0875_RLatLon0.09_PT053H.grib2 2026-04-19 20:56 464K
20260419T18Z_MSC_RDPS_DewPointDepression_IsbL-0900_RLatLon0.09_PT053H.grib2 2026-04-19 20:56 456K
20260419T18Z_MSC_RDPS_DewPointDepression_IsbL-0925_RLatLon0.09_PT053H.grib2 2026-04-19 20:56 448K
20260419T18Z_MSC_RDPS_DewPointDepression_IsbL-0950_RLatLon0.09_PT053H.grib2 2026-04-19 20:56 443K
20260419T18Z_MSC_RDPS_DewPointDepression_IsbL-0970_RLatLon0.09_PT053H.grib2 2026-04-19 20:56 437K
20260419T18Z_MSC_RDPS_DewPointDepression_IsbL-0985_RLatLon0.09_PT053H.grib2 2026-04-19 20:56 433K
20260419T18Z_MSC_RDPS_DewPointDepression_IsbL-1000_RLatLon0.09_PT053H.grib2 2026-04-19 20:56 426K
20260419T18Z_MSC_RDPS_DewPointDepression_IsbL-1015_RLatLon0.09_PT053H.grib2 2026-04-19 20:56 416K
20260419T18Z_MSC_RDPS_DewPoint_AGL-2m_RLatLon0.09_PT053H.grib2 2026-04-19 20:56 399K
20260419T18Z_MSC_RDPS_DownwardLongwaveRadiationFlux-Accum_Sfc_RLatLon0.09_PT053H.grib2 2026-04-19 20:56 375K
20260419T18Z_MSC_RDPS_DownwardShortwaveRadiationFlux-Accum_NTAtm_RLatLon0.09_PT053H.grib2 2026-04-19 20:56 101K
20260419T18Z_MSC_RDPS_DownwardShortwaveRadiationFlux-Accum_Sfc_RLatLon0.09_PT053H.grib2 2026-04-19 20:56 566K
20260419T18Z_MSC_RDPS_FreezingRain-Accum1h_Sfc_RLatLon0.09_PT053H.grib2 2026-04-19 20:56 16K
20260419T18Z_MSC_RDPS_FreezingRain-Accum_Sfc_RLatLon0.09_PT053H.grib2 2026-04-19 20:56 136K
20260419T18Z_MSC_RDPS_GeopotentialHeight_IsbL-0001_RLatLon0.09_PT053H.grib2 2026-04-19 20:56 277K
20260419T18Z_MSC_RDPS_GeopotentialHeight_IsbL-0005_RLatLon0.09_PT053H.grib2 2026-04-19 20:56 240K
20260419T18Z_MSC_RDPS_GeopotentialHeight_IsbL-0010_RLatLon0.09_PT053H.grib2 2026-04-19 20:56 316K
20260419T18Z_MSC_RDPS_GeopotentialHeight_IsbL-0020_RLatLon0.09_PT053H.grib2 2026-04-19 20:56 313K
20260419T18Z_MSC_RDPS_GeopotentialHeight_IsbL-0030_RLatLon0.09_PT053H.grib2 2026-04-19 20:56 314K
20260419T18Z_MSC_RDPS_GeopotentialHeight_IsbL-0050_RLatLon0.09_PT053H.grib2 2026-04-19 20:56 349K
20260419T18Z_MSC_RDPS_GeopotentialHeight_IsbL-0100_RLatLon0.09_PT053H.grib2 2026-04-19 20:56 295K
20260419T18Z_MSC_RDPS_GeopotentialHeight_IsbL-0150_RLatLon0.09_PT053H.grib2 2026-04-19 20:56 266K
20260419T18Z_MSC_RDPS_GeopotentialHeight_IsbL-0175_RLatLon0.09_PT053H.grib2 2026-04-19 20:56 270K
20260419T18Z_MSC_RDPS_GeopotentialHeight_IsbL-0200_RLatLon0.09_PT053H.grib2 2026-04-19 20:56 272K
20260419T18Z_MSC_RDPS_GeopotentialHeight_IsbL-0225_RLatLon0.09_PT053H.grib2 2026-04-19 20:56 273K
20260419T18Z_MSC_RDPS_GeopotentialHeight_IsbL-0250_RLatLon0.09_PT053H.grib2 2026-04-19 20:56 273K
20260419T18Z_MSC_RDPS_GeopotentialHeight_IsbL-0275_RLatLon0.09_PT053H.grib2 2026-04-19 20:56 271K
20260419T18Z_MSC_RDPS_GeopotentialHeight_IsbL-0300_RLatLon0.09_PT053H.grib2 2026-04-19 20:56 270K
20260419T18Z_MSC_RDPS_GeopotentialHeight_IsbL-0350_RLatLon0.09_PT053H.grib2 2026-04-19 20:56 236K
20260419T18Z_MSC_RDPS_GeopotentialHeight_IsbL-0400_RLatLon0.09_PT053H.grib2 2026-04-19 20:56 233K
20260419T18Z_MSC_RDPS_GeopotentialHeight_IsbL-0450_RLatLon0.09_PT053H.grib2 2026-04-19 20:56 303K
20260419T18Z_MSC_RDPS_GeopotentialHeight_IsbL-0500_RLatLon0.09_PT053H.grib2 2026-04-19 20:56 299K
20260419T18Z_MSC_RDPS_GeopotentialHeight_IsbL-0550_RLatLon0.09_PT053H.grib2 2026-04-19 20:56 295K
20260419T18Z_MSC_RDPS_GeopotentialHeight_IsbL-0600_RLatLon0.09_PT053H.grib2 2026-04-19 20:56 292K
20260419T18Z_MSC_RDPS_GeopotentialHeight_IsbL-0650_RLatLon0.09_PT053H.grib2 2026-04-19 20:56 261K
20260419T18Z_MSC_RDPS_GeopotentialHeight_IsbL-0700_RLatLon0.09_PT053H.grib2 2026-04-19 20:56 258K
20260419T18Z_MSC_RDPS_GeopotentialHeight_IsbL-0750_RLatLon0.09_PT053H.grib2 2026-04-19 20:56 259K
20260419T18Z_MSC_RDPS_GeopotentialHeight_IsbL-0800_RLatLon0.09_PT053H.grib2 2026-04-19 20:56 264K
20260419T18Z_MSC_RDPS_GeopotentialHeight_IsbL-0850_RLatLon0.09_PT053H.grib2 2026-04-19 20:56 269K
20260419T18Z_MSC_RDPS_GeopotentialHeight_IsbL-0875_RLatLon0.09_PT053H.grib2 2026-04-19 20:56 270K
20260419T18Z_MSC_RDPS_GeopotentialHeight_IsbL-0900_RLatLon0.09_PT053H.grib2 2026-04-19 20:56 275K
20260419T18Z_MSC_RDPS_GeopotentialHeight_IsbL-0925_RLatLon0.09_PT053H.grib2 2026-04-19 20:56 278K
20260419T18Z_MSC_RDPS_GeopotentialHeight_IsbL-0950_RLatLon0.09_PT053H.grib2 2026-04-19 20:56 281K
20260419T18Z_MSC_RDPS_GeopotentialHeight_IsbL-0970_RLatLon0.09_PT053H.grib2 2026-04-19 20:56 286K
20260419T18Z_MSC_RDPS_GeopotentialHeight_IsbL-0985_RLatLon0.09_PT053H.grib2 2026-04-19 20:56 294K
20260419T18Z_MSC_RDPS_GeopotentialHeight_IsbL-1000_RLatLon0.09_PT053H.grib2 2026-04-19 20:56 304K
20260419T18Z_MSC_RDPS_GeopotentialHeight_IsbL-1015_RLatLon0.09_PT053H.grib2 2026-04-19 20:56 315K
20260419T18Z_MSC_RDPS_Humidex_Sfc_RLatLon0.09_PT053H.grib2 2026-04-19 20:56 2.4M
20260419T18Z_MSC_RDPS_IcePellets-Accum1h_Sfc_RLatLon0.09_PT053H.grib2 2026-04-19 20:56 7.9K
20260419T18Z_MSC_RDPS_IcePellets-Accum_Sfc_RLatLon0.09_PT053H.grib2 2026-04-19 20:56 23K
20260419T18Z_MSC_RDPS_KIndex_Sfc_RLatLon0.09_PT053H.grib2 2026-04-19 20:56 2.4M
20260419T18Z_MSC_RDPS_LatentHeatNetFlux_Sfc_RLatLon0.09_PT053H.grib2 2026-04-19 20:56 366K
20260419T18Z_MSC_RDPS_LiftedIndex-MU-VT_IsbL-0500_RLatLon0.09_PT053H.grib2 2026-04-19 20:56 2.4M
20260419T18Z_MSC_RDPS_NetLongwaveRadiationFlux-Accum_Sfc_RLatLon0.09_PT053H.grib2 2026-04-19 20:56 554K
20260419T18Z_MSC_RDPS_NetShortwaveRadiationFlux-Accum_Sfc_RLatLon0.09_PT053H.grib2 2026-04-19 20:56 586K
20260419T18Z_MSC_RDPS_PlanetaryBoundaryLayerHeight_Sfc_RLatLon0.09_PT053H.grib2 2026-04-19 20:56 1.0M
20260419T18Z_MSC_RDPS_Precip-Accum1h_Sfc_RLatLon0.09_PT053H.grib2 2026-04-19 20:56 1.2M
20260419T18Z_MSC_RDPS_Precip-Accum_Sfc_RLatLon0.09_PT053H.grib2 2026-04-19 20:56 1.9M
20260419T18Z_MSC_RDPS_PrecipRate_Sfc_RLatLon0.09_PT053H.grib2 2026-04-19 20:56 194K
20260419T18Z_MSC_RDPS_PrecipType-Instant_Sfc_RLatLon0.09_PT053H.grib2 2026-04-19 20:56 603K
20260419T18Z_MSC_RDPS_Pressure-Trend3h_Sfc_RLatLon0.09_PT053H.grib2 2026-04-19 20:56 1.2M
20260419T18Z_MSC_RDPS_Pressure_MSL_RLatLon0.09_PT053H.grib2 2026-04-19 20:56 331K
20260419T18Z_MSC_RDPS_Pressure_PVU-1.5_RLatLon0.09_PT053H.grib2 2026-04-19 20:56 2.5M
20260419T18Z_MSC_RDPS_Pressure_PVU-1_RLatLon0.09_PT053H.grib2 2026-04-19 20:56 2.4M
20260419T18Z_MSC_RDPS_Pressure_PVU-2_RLatLon0.09_PT053H.grib2 2026-04-19 20:56 2.4M
20260419T18Z_MSC_RDPS_Pressure_Sfc_RLatLon0.09_PT053H.grib2 2026-04-19 20:56 501K
20260419T18Z_MSC_RDPS_RadiativeTemp_Sfc_RLatLon0.09_PT053H.grib2 2026-04-19 20:56 324K
20260419T18Z_MSC_RDPS_Rain-Accum1h_Sfc_RLatLon0.09_PT053H.grib2 2026-04-19 20:56 620K
20260419T18Z_MSC_RDPS_Rain-Accum_Sfc_RLatLon0.09_PT053H.grib2 2026-04-19 20:56 1.6M
20260419T18Z_MSC_RDPS_RelativeHumidity_AGL-2m_RLatLon0.09_PT053H.grib2 2026-04-19 20:56 1.0M
20260419T18Z_MSC_RDPS_RelativeHumidity_IsbL-0010_RLatLon0.09_PT053H.grib2 2026-04-19 20:56 623K
20260419T18Z_MSC_RDPS_RelativeHumidity_IsbL-0020_RLatLon0.09_PT053H.grib2 2026-04-19 20:56 572K
20260419T18Z_MSC_RDPS_RelativeHumidity_IsbL-0030_RLatLon0.09_PT053H.grib2 2026-04-19 20:56 550K
20260419T18Z_MSC_RDPS_RelativeHumidity_IsbL-0050_RLatLon0.09_PT053H.grib2 2026-04-19 20:56 290K
20260419T18Z_MSC_RDPS_RelativeHumidity_IsbL-0100_RLatLon0.09_PT053H.grib2 2026-04-19 20:56 270K
20260419T18Z_MSC_RDPS_RelativeHumidity_IsbL-0150_RLatLon0.09_PT053H.grib2 2026-04-19 20:56 380K
20260419T18Z_MSC_RDPS_RelativeHumidity_IsbL-0175_RLatLon0.09_PT053H.grib2 2026-04-19 20:56 480K
20260419T18Z_MSC_RDPS_RelativeHumidity_IsbL-0200_RLatLon0.09_PT053H.grib2 2026-04-19 20:56 572K
20260419T18Z_MSC_RDPS_RelativeHumidity_IsbL-0225_RLatLon0.09_PT053H.grib2 2026-04-19 20:56 645K
20260419T18Z_MSC_RDPS_RelativeHumidity_IsbL-0250_RLatLon0.09_PT053H.grib2 2026-04-19 20:56 703K
20260419T18Z_MSC_RDPS_RelativeHumidity_IsbL-0275_RLatLon0.09_PT053H.grib2 2026-04-19 20:56 716K
20260419T18Z_MSC_RDPS_RelativeHumidity_IsbL-0300_RLatLon0.09_PT053H.grib2 2026-04-19 20:56 754K
20260419T18Z_MSC_RDPS_RelativeHumidity_IsbL-0350_RLatLon0.09_PT053H.grib2 2026-04-19 20:56 773K
20260419T18Z_MSC_RDPS_RelativeHumidity_IsbL-0400_RLatLon0.09_PT053H.grib2 2026-04-19 20:56 790K
20260419T18Z_MSC_RDPS_RelativeHumidity_IsbL-0450_RLatLon0.09_PT053H.grib2 2026-04-19 20:56 800K
20260419T18Z_MSC_RDPS_RelativeHumidity_IsbL-0500_RLatLon0.09_PT053H.grib2 2026-04-19 20:56 817K
20260419T18Z_MSC_RDPS_RelativeHumidity_IsbL-0550_RLatLon0.09_PT053H.grib2 2026-04-19 20:56 854K
20260419T18Z_MSC_RDPS_RelativeHumidity_IsbL-0600_RLatLon0.09_PT053H.grib2 2026-04-19 20:56 873K
20260419T18Z_MSC_RDPS_RelativeHumidity_IsbL-0650_RLatLon0.09_PT053H.grib2 2026-04-19 20:56 873K
20260419T18Z_MSC_RDPS_RelativeHumidity_IsbL-0700_RLatLon0.09_PT053H.grib2 2026-04-19 20:56 887K
20260419T18Z_MSC_RDPS_RelativeHumidity_IsbL-0750_RLatLon0.09_PT053H.grib2 2026-04-19 20:56 922K
20260419T18Z_MSC_RDPS_RelativeHumidity_IsbL-0800_RLatLon0.09_PT053H.grib2 2026-04-19 20:56 1.0M
20260419T18Z_MSC_RDPS_RelativeHumidity_IsbL-0850_RLatLon0.09_PT053H.grib2 2026-04-19 20:56 1.0M
20260419T18Z_MSC_RDPS_RelativeHumidity_IsbL-0875_RLatLon0.09_PT053H.grib2 2026-04-19 20:56 1.0M
20260419T18Z_MSC_RDPS_RelativeHumidity_IsbL-0900_RLatLon0.09_PT053H.grib2 2026-04-19 20:56 1.0M
20260419T18Z_MSC_RDPS_RelativeHumidity_IsbL-0925_RLatLon0.09_PT053H.grib2 2026-04-19 20:56 1.1M
20260419T18Z_MSC_RDPS_RelativeHumidity_IsbL-0950_RLatLon0.09_PT053H.grib2 2026-04-19 20:56 1.1M
20260419T18Z_MSC_RDPS_RelativeHumidity_IsbL-0970_RLatLon0.09_PT053H.grib2 2026-04-19 20:56 1.0M
20260419T18Z_MSC_RDPS_RelativeHumidity_IsbL-0985_RLatLon0.09_PT053H.grib2 2026-04-19 20:56 1.0M
20260419T18Z_MSC_RDPS_RelativeHumidity_IsbL-1000_RLatLon0.09_PT053H.grib2 2026-04-19 20:56 1.0M
20260419T18Z_MSC_RDPS_RelativeHumidity_IsbL-1015_RLatLon0.09_PT053H.grib2 2026-04-19 20:56 1.0M
20260419T18Z_MSC_RDPS_Runoff-Accum_Sfc_RLatLon0.09_PT053H.grib2 2026-04-19 20:56 57K
20260419T18Z_MSC_RDPS_SWEATIndex_Sfc_RLatLon0.09_PT053H.grib2 2026-04-19 20:56 2.4M
20260419T18Z_MSC_RDPS_SeeingIndex_EAtm_RLatLon0.09_PT053H.grib2 2026-04-19 20:56 1.0M
20260419T18Z_MSC_RDPS_SensibleHeatNetFlux_Sfc_RLatLon0.09_PT053H.grib2 2026-04-19 20:56 336K
20260419T18Z_MSC_RDPS_ShowalterIndex_IsbL-0500_RLatLon0.09_PT053H.grib2 2026-04-19 20:56 2.6M
20260419T18Z_MSC_RDPS_SkyTransparencyIndex_EAtm_RLatLon0.09_PT053H.grib2 2026-04-19 20:56 722K
20260419T18Z_MSC_RDPS_Snow-Accum1h_Sfc_RLatLon0.09_PT053H.grib2 2026-04-19 20:56 452K
20260419T18Z_MSC_RDPS_Snow-Accum_Sfc_RLatLon0.09_PT053H.grib2 2026-04-19 20:56 661K
20260419T18Z_MSC_RDPS_SnowDensity_Sfc_RLatLon0.09_PT053H.grib2 2026-04-19 20:56 172K
20260419T18Z_MSC_RDPS_SnowDepth_Sfc_RLatLon0.09_PT053H.grib2 2026-04-19 20:56 709K
20260419T18Z_MSC_RDPS_SoilTemp_DBS-0to10cm_RLatLon0.09_PT053H.grib2 2026-04-19 20:56 244K
20260419T18Z_MSC_RDPS_SoilTemp_Sfc_RLatLon0.09_PT053H.grib2 2026-04-19 20:56 291K
20260419T18Z_MSC_RDPS_SoilVolumetricIceContent_Sfc_RLatLon0.09_PT053H.grib2 2026-04-19 20:56 170K
20260419T18Z_MSC_RDPS_SoilVolumetricWaterContent_DBS-0to10cm_RLatLon0.09_PT053H.grib2 2026-04-19 20:56 250K
20260419T18Z_MSC_RDPS_SoilVolumetricWaterContent_DBS-0to1cm_RLatLon0.09_PT053H.grib2 2026-04-19 20:56 338K
20260419T18Z_MSC_RDPS_SpecificHumidity_AGL-120m_RLatLon0.09_PT053H.grib2 2026-04-19 20:56 483K
20260419T18Z_MSC_RDPS_SpecificHumidity_AGL-2m_RLatLon0.09_PT053H.grib2 2026-04-19 20:56 652K
20260419T18Z_MSC_RDPS_SpecificHumidity_AGL-40m_RLatLon0.09_PT053H.grib2 2026-04-19 20:56 489K
20260419T18Z_MSC_RDPS_SpecificHumidity_AGL-80m_RLatLon0.09_PT053H.grib2 2026-04-19 20:56 485K
20260419T18Z_MSC_RDPS_SpecificHumidity_IsbL-0001_RLatLon0.09_PT053H.grib2 2026-04-19 20:56 327K
20260419T18Z_MSC_RDPS_SpecificHumidity_IsbL-0005_RLatLon0.09_PT053H.grib2 2026-04-19 20:56 404K
20260419T18Z_MSC_RDPS_SpecificHumidity_IsbL-0010_RLatLon0.09_PT053H.grib2 2026-04-19 20:56 375K
20260419T18Z_MSC_RDPS_SpecificHumidity_IsbL-0020_RLatLon0.09_PT053H.grib2 2026-04-19 20:56 370K
20260419T18Z_MSC_RDPS_SpecificHumidity_IsbL-0030_RLatLon0.09_PT053H.grib2 2026-04-19 20:56 442K
20260419T18Z_MSC_RDPS_SpecificHumidity_IsbL-0050_RLatLon0.09_PT053H.grib2 2026-04-19 20:56 468K
20260419T18Z_MSC_RDPS_SpecificHumidity_IsbL-0100_RLatLon0.09_PT053H.grib2 2026-04-19 20:56 415K
20260419T18Z_MSC_RDPS_SpecificHumidity_IsbL-0150_RLatLon0.09_PT053H.grib2 2026-04-19 20:56 442K
20260419T18Z_MSC_RDPS_SpecificHumidity_IsbL-0175_RLatLon0.09_PT053H.grib2 2026-04-19 20:56 540K
20260419T18Z_MSC_RDPS_SpecificHumidity_IsbL-0200_RLatLon0.09_PT053H.grib2 2026-04-19 20:56 456K
20260419T18Z_MSC_RDPS_SpecificHumidity_IsbL-0225_RLatLon0.09_PT053H.grib2 2026-04-19 20:56 567K
20260419T18Z_MSC_RDPS_SpecificHumidity_IsbL-0250_RLatLon0.09_PT053H.grib2 2026-04-19 20:56 565K
20260419T18Z_MSC_RDPS_SpecificHumidity_IsbL-0275_RLatLon0.09_PT053H.grib2 2026-04-19 20:56 478K
20260419T18Z_MSC_RDPS_SpecificHumidity_IsbL-0300_RLatLon0.09_PT053H.grib2 2026-04-19 20:56 574K
20260419T18Z_MSC_RDPS_SpecificHumidity_IsbL-0350_RLatLon0.09_PT053H.grib2 2026-04-19 20:56 540K
20260419T18Z_MSC_RDPS_SpecificHumidity_IsbL-0400_RLatLon0.09_PT053H.grib2 2026-04-19 20:56 522K
20260419T18Z_MSC_RDPS_SpecificHumidity_IsbL-0450_RLatLon0.09_PT053H.grib2 2026-04-19 20:56 578K
20260419T18Z_MSC_RDPS_SpecificHumidity_IsbL-0500_RLatLon0.09_PT053H.grib2 2026-04-19 20:56 521K
20260419T18Z_MSC_RDPS_SpecificHumidity_IsbL-0550_RLatLon0.09_PT053H.grib2 2026-04-19 20:56 585K
20260419T18Z_MSC_RDPS_SpecificHumidity_IsbL-0600_RLatLon0.09_PT053H.grib2 2026-04-19 20:56 654K
20260419T18Z_MSC_RDPS_SpecificHumidity_IsbL-0650_RLatLon0.09_PT053H.grib2 2026-04-19 20:56 562K
20260419T18Z_MSC_RDPS_SpecificHumidity_IsbL-0700_RLatLon0.09_PT053H.grib2 2026-04-19 20:56 598K
20260419T18Z_MSC_RDPS_SpecificHumidity_IsbL-0750_RLatLon0.09_PT053H.grib2 2026-04-19 20:56 652K
20260419T18Z_MSC_RDPS_SpecificHumidity_IsbL-0800_RLatLon0.09_PT053H.grib2 2026-04-19 20:56 740K
20260419T18Z_MSC_RDPS_SpecificHumidity_IsbL-0850_RLatLon0.09_PT053H.grib2 2026-04-19 20:56 804K
20260419T18Z_MSC_RDPS_SpecificHumidity_IsbL-0875_RLatLon0.09_PT053H.grib2 2026-04-19 20:56 818K
20260419T18Z_MSC_RDPS_SpecificHumidity_IsbL-0900_RLatLon0.09_PT053H.grib2 2026-04-19 20:56 826K
20260419T18Z_MSC_RDPS_SpecificHumidity_IsbL-0925_RLatLon0.09_PT053H.grib2 2026-04-19 20:56 692K
20260419T18Z_MSC_RDPS_SpecificHumidity_IsbL-0950_RLatLon0.09_PT053H.grib2 2026-04-19 20:56 694K
20260419T18Z_MSC_RDPS_SpecificHumidity_IsbL-0970_RLatLon0.09_PT053H.grib2 2026-04-19 20:56 689K
20260419T18Z_MSC_RDPS_SpecificHumidity_IsbL-0985_RLatLon0.09_PT053H.grib2 2026-04-19 20:56 681K
20260419T18Z_MSC_RDPS_SpecificHumidity_IsbL-1000_RLatLon0.09_PT053H.grib2 2026-04-19 20:56 673K
20260419T18Z_MSC_RDPS_SpecificHumidity_IsbL-1015_RLatLon0.09_PT053H.grib2 2026-04-19 20:56 664K
20260419T18Z_MSC_RDPS_SpecificHumidity_Sfc_RLatLon0.09_PT053H.grib2 2026-04-19 20:56 337K
20260419T18Z_MSC_RDPS_StormRelativeHelicity_EtaL-10000_RLatLon0.09_PT053H.grib2 2026-04-19 20:56 1.1M
20260419T18Z_MSC_RDPS_StormSeverityIndex_EtaL-10000_RLatLon0.09_PT053H.grib2 2026-04-19 20:56 1.2M
20260419T18Z_MSC_RDPS_Thickness_IsbL-0850to0700_RLatLon0.09_PT053H.grib2 2026-04-19 20:56 180K
20260419T18Z_MSC_RDPS_Thickness_IsbL-1000to0500_RLatLon0.09_PT053H.grib2 2026-04-19 20:56 205K
20260419T18Z_MSC_RDPS_Thickness_IsbL-1000to0850_RLatLon0.09_PT053H.grib2 2026-04-19 20:56 188K
20260419T18Z_MSC_RDPS_TotalCloudCover_Sfc_RLatLon0.09_PT053H.grib2 2026-04-19 20:56 648K
20260419T18Z_MSC_RDPS_TotalTotalsIndex_Sfc_RLatLon0.09_PT053H.grib2 2026-04-19 20:56 2.4M
20260419T18Z_MSC_RDPS_UVIndex-ClearSky_Sfc_RLatLon0.09_PT053H.grib2 2026-04-19 20:56 193K
20260419T18Z_MSC_RDPS_UVIndex_Sfc_RLatLon0.09_PT053H.grib2 2026-04-19 20:56 421K
20260419T18Z_MSC_RDPS_UpwardLongwaveRadiationFlux_NTAtm_RLatLon0.09_PT053H.grib2 2026-04-19 20:56 498K
20260419T18Z_MSC_RDPS_UpwardShortwaveRadiationFlux_NTAtm_RLatLon0.09_PT053H.grib2 2026-04-19 20:56 384K
20260419T18Z_MSC_RDPS_VerticalVelocity_IsbL-0250_RLatLon0.09_PT053H.grib2 2026-04-19 20:56 595K
20260419T18Z_MSC_RDPS_VerticalVelocity_IsbL-0500_RLatLon0.09_PT053H.grib2 2026-04-19 20:56 561K
20260419T18Z_MSC_RDPS_VerticalVelocity_IsbL-0700_RLatLon0.09_PT053H.grib2 2026-04-19 20:56 571K
20260419T18Z_MSC_RDPS_VerticalVelocity_IsbL-0850_RLatLon0.09_PT053H.grib2 2026-04-19 20:56 702K
20260419T18Z_MSC_RDPS_VerticalWindShear_EtaL-6500_RLatLon0.09_PT053H.grib2 2026-04-19 20:56 1.2M
20260419T18Z_MSC_RDPS_WindChill_Sfc_RLatLon0.09_PT053H.grib2 2026-04-19 20:56 1.2M
20260419T18Z_MSC_RDPS_WindDir_AGL-10m_RLatLon0.09_PT053H.grib2 2026-04-19 20:56 958K
20260419T18Z_MSC_RDPS_WindDir_AGL-120m_RLatLon0.09_PT053H.grib2 2026-04-19 20:56 608K
20260419T18Z_MSC_RDPS_WindDir_AGL-40m_RLatLon0.09_PT053H.grib2 2026-04-19 20:56 628K
20260419T18Z_MSC_RDPS_WindDir_AGL-80m_RLatLon0.09_PT053H.grib2 2026-04-19 20:56 616K
20260419T18Z_MSC_RDPS_WindDir_IsbL-0001_RLatLon0.09_PT053H.grib2 2026-04-19 20:56 252K
20260419T18Z_MSC_RDPS_WindDir_IsbL-0005_RLatLon0.09_PT053H.grib2 2026-04-19 20:56 347K
20260419T18Z_MSC_RDPS_WindDir_IsbL-0010_RLatLon0.09_PT053H.grib2 2026-04-19 20:56 380K
20260419T18Z_MSC_RDPS_WindDir_IsbL-0020_RLatLon0.09_PT053H.grib2 2026-04-19 20:56 404K
20260419T18Z_MSC_RDPS_WindDir_IsbL-0030_RLatLon0.09_PT053H.grib2 2026-04-19 20:56 408K
20260419T18Z_MSC_RDPS_WindDir_IsbL-0050_RLatLon0.09_PT053H.grib2 2026-04-19 20:56 425K
20260419T18Z_MSC_RDPS_WindDir_IsbL-0100_RLatLon0.09_PT053H.grib2 2026-04-19 20:56 421K
20260419T18Z_MSC_RDPS_WindDir_IsbL-0150_RLatLon0.09_PT053H.grib2 2026-04-19 20:56 425K
20260419T18Z_MSC_RDPS_WindDir_IsbL-0175_RLatLon0.09_PT053H.grib2 2026-04-19 20:56 445K
20260419T18Z_MSC_RDPS_WindDir_IsbL-0200_RLatLon0.09_PT053H.grib2 2026-04-19 20:56 451K
20260419T18Z_MSC_RDPS_WindDir_IsbL-0225_RLatLon0.09_PT053H.grib2 2026-04-19 20:56 448K
20260419T18Z_MSC_RDPS_WindDir_IsbL-0250_RLatLon0.09_PT053H.grib2 2026-04-19 20:56 443K
20260419T18Z_MSC_RDPS_WindDir_IsbL-0275_RLatLon0.09_PT053H.grib2 2026-04-19 20:56 460K
20260419T18Z_MSC_RDPS_WindDir_IsbL-0300_RLatLon0.09_PT053H.grib2 2026-04-19 20:56 456K
20260419T18Z_MSC_RDPS_WindDir_IsbL-0350_RLatLon0.09_PT053H.grib2 2026-04-19 20:56 473K
20260419T18Z_MSC_RDPS_WindDir_IsbL-0400_RLatLon0.09_PT053H.grib2 2026-04-19 20:56 497K
20260419T18Z_MSC_RDPS_WindDir_IsbL-0450_RLatLon0.09_PT053H.grib2 2026-04-19 20:56 518K
20260419T18Z_MSC_RDPS_WindDir_IsbL-0500_RLatLon0.09_PT053H.grib2 2026-04-19 20:56 537K
20260419T18Z_MSC_RDPS_WindDir_IsbL-0550_RLatLon0.09_PT053H.grib2 2026-04-19 20:56 557K
20260419T18Z_MSC_RDPS_WindDir_IsbL-0600_RLatLon0.09_PT053H.grib2 2026-04-19 20:56 583K
20260419T18Z_MSC_RDPS_WindDir_IsbL-0650_RLatLon0.09_PT053H.grib2 2026-04-19 20:56 624K
20260419T18Z_MSC_RDPS_WindDir_IsbL-0700_RLatLon0.09_PT053H.grib2 2026-04-19 20:56 671K
20260419T18Z_MSC_RDPS_WindDir_IsbL-0750_RLatLon0.09_PT053H.grib2 2026-04-19 20:56 721K
20260419T18Z_MSC_RDPS_WindDir_IsbL-0800_RLatLon0.09_PT053H.grib2 2026-04-19 20:56 800K
20260419T18Z_MSC_RDPS_WindDir_IsbL-0850_RLatLon0.09_PT053H.grib2 2026-04-19 20:56 871K
20260419T18Z_MSC_RDPS_WindDir_IsbL-0875_RLatLon0.09_PT053H.grib2 2026-04-19 20:56 896K
20260419T18Z_MSC_RDPS_WindDir_IsbL-0900_RLatLon0.09_PT053H.grib2 2026-04-19 20:56 906K
20260419T18Z_MSC_RDPS_WindDir_IsbL-0925_RLatLon0.09_PT053H.grib2 2026-04-19 20:56 912K
20260419T18Z_MSC_RDPS_WindDir_IsbL-0950_RLatLon0.09_PT053H.grib2 2026-04-19 20:56 910K
20260419T18Z_MSC_RDPS_WindDir_IsbL-0970_RLatLon0.09_PT053H.grib2 2026-04-19 20:56 914K
20260419T18Z_MSC_RDPS_WindDir_IsbL-0985_RLatLon0.09_PT053H.grib2 2026-04-19 20:56 923K
20260419T18Z_MSC_RDPS_WindDir_IsbL-1000_RLatLon0.09_PT053H.grib2 2026-04-19 20:56 935K
20260419T18Z_MSC_RDPS_WindDir_IsbL-1015_RLatLon0.09_PT053H.grib2 2026-04-19 20:56 951K
20260419T18Z_MSC_RDPS_WindGust-Max_AGL-10m_RLatLon0.09_PT053H.grib2 2026-04-19 20:56 953K
20260419T18Z_MSC_RDPS_WindGust-Min_AGL-10m_RLatLon0.09_PT053H.grib2 2026-04-19 20:56 1.0M
20260419T18Z_MSC_RDPS_WindGust_AGL-10m_RLatLon0.09_PT053H.grib2 2026-04-19 20:56 1.0M
20260419T18Z_MSC_RDPS_WindSpeed_AGL-10m_RLatLon0.09_PT053H.grib2 2026-04-19 20:56 845K
20260419T18Z_MSC_RDPS_WindSpeed_AGL-120m_RLatLon0.09_PT053H.grib2 2026-04-19 20:56 536K
20260419T18Z_MSC_RDPS_WindSpeed_AGL-40m_RLatLon0.09_PT053H.grib2 2026-04-19 20:56 673K
20260419T18Z_MSC_RDPS_WindSpeed_AGL-80m_RLatLon0.09_PT053H.grib2 2026-04-19 20:56 538K
20260419T18Z_MSC_RDPS_WindSpeed_IsbL-0001_RLatLon0.09_PT053H.grib2 2026-04-19 20:56 243K
20260419T18Z_MSC_RDPS_WindSpeed_IsbL-0005_RLatLon0.09_PT053H.grib2 2026-04-19 20:56 295K
20260419T18Z_MSC_RDPS_WindSpeed_IsbL-0010_RLatLon0.09_PT053H.grib2 2026-04-19 20:56 312K
20260419T18Z_MSC_RDPS_WindSpeed_IsbL-0020_RLatLon0.09_PT053H.grib2 2026-04-19 20:56 334K
20260419T18Z_MSC_RDPS_WindSpeed_IsbL-0030_RLatLon0.09_PT053H.grib2 2026-04-19 20:56 334K
20260419T18Z_MSC_RDPS_WindSpeed_IsbL-0050_RLatLon0.09_PT053H.grib2 2026-04-19 20:56 480K
20260419T18Z_MSC_RDPS_WindSpeed_IsbL-0100_RLatLon0.09_PT053H.grib2 2026-04-19 20:56 495K
20260419T18Z_MSC_RDPS_WindSpeed_IsbL-0150_RLatLon0.09_PT053H.grib2 2026-04-19 20:56 387K
20260419T18Z_MSC_RDPS_WindSpeed_IsbL-0175_RLatLon0.09_PT053H.grib2 2026-04-19 20:56 412K
20260419T18Z_MSC_RDPS_WindSpeed_IsbL-0200_RLatLon0.09_PT053H.grib2 2026-04-19 20:56 429K
20260419T18Z_MSC_RDPS_WindSpeed_IsbL-0225_RLatLon0.09_PT053H.grib2 2026-04-19 20:56 434K
20260419T18Z_MSC_RDPS_WindSpeed_IsbL-0250_RLatLon0.09_PT053H.grib2 2026-04-19 20:56 451K
20260419T18Z_MSC_RDPS_WindSpeed_IsbL-0275_RLatLon0.09_PT053H.grib2 2026-04-19 20:56 465K
20260419T18Z_MSC_RDPS_WindSpeed_IsbL-0300_RLatLon0.09_PT053H.grib2 2026-04-19 20:56 460K
20260419T18Z_MSC_RDPS_WindSpeed_IsbL-0350_RLatLon0.09_PT053H.grib2 2026-04-19 20:56 468K
20260419T18Z_MSC_RDPS_WindSpeed_IsbL-0400_RLatLon0.09_PT053H.grib2 2026-04-19 20:56 474K
20260419T18Z_MSC_RDPS_WindSpeed_IsbL-0450_RLatLon0.09_PT053H.grib2 2026-04-19 20:56 460K
20260419T18Z_MSC_RDPS_WindSpeed_IsbL-0500_RLatLon0.09_PT053H.grib2 2026-04-19 20:56 467K
20260419T18Z_MSC_RDPS_WindSpeed_IsbL-0550_RLatLon0.09_PT053H.grib2 2026-04-19 20:56 590K
20260419T18Z_MSC_RDPS_WindSpeed_IsbL-0600_RLatLon0.09_PT053H.grib2 2026-04-19 20:56 599K
20260419T18Z_MSC_RDPS_WindSpeed_IsbL-0650_RLatLon0.09_PT053H.grib2 2026-04-19 20:56 616K
20260419T18Z_MSC_RDPS_WindSpeed_IsbL-0700_RLatLon0.09_PT053H.grib2 2026-04-19 20:56 638K
20260419T18Z_MSC_RDPS_WindSpeed_IsbL-0750_RLatLon0.09_PT053H.grib2 2026-04-19 20:56 713K
20260419T18Z_MSC_RDPS_WindSpeed_IsbL-0800_RLatLon0.09_PT053H.grib2 2026-04-19 20:56 764K
20260419T18Z_MSC_RDPS_WindSpeed_IsbL-0850_RLatLon0.09_PT053H.grib2 2026-04-19 20:56 822K
20260419T18Z_MSC_RDPS_WindSpeed_IsbL-0875_RLatLon0.09_PT053H.grib2 2026-04-19 20:56 841K
20260419T18Z_MSC_RDPS_WindSpeed_IsbL-0900_RLatLon0.09_PT053H.grib2 2026-04-19 20:56 853K
20260419T18Z_MSC_RDPS_WindSpeed_IsbL-0925_RLatLon0.09_PT053H.grib2 2026-04-19 20:56 862K
20260419T18Z_MSC_RDPS_WindSpeed_IsbL-0950_RLatLon0.09_PT053H.grib2 2026-04-19 20:56 862K
20260419T18Z_MSC_RDPS_WindSpeed_IsbL-0970_RLatLon0.09_PT053H.grib2 2026-04-19 20:56 864K
20260419T18Z_MSC_RDPS_WindSpeed_IsbL-0985_RLatLon0.09_PT053H.grib2 2026-04-19 20:56 858K
20260419T18Z_MSC_RDPS_WindSpeed_IsbL-1000_RLatLon0.09_PT053H.grib2 2026-04-19 20:56 855K
20260419T18Z_MSC_RDPS_WindSpeed_IsbL-1015_RLatLon0.09_PT053H.grib2 2026-04-19 20:56 848K
20260419T18Z_MSC_RDPS_WindU_AGL-10m_RLatLon0.09_PT053H.grib2 2026-04-19 20:56 435K
20260419T18Z_MSC_RDPS_WindU_AGL-120m_RLatLon0.09_PT053H.grib2 2026-04-19 20:56 535K
20260419T18Z_MSC_RDPS_WindU_AGL-40m_RLatLon0.09_PT053H.grib2 2026-04-19 20:56 538K
20260419T18Z_MSC_RDPS_WindU_AGL-80m_RLatLon0.09_PT053H.grib2 2026-04-19 20:56 536K
20260419T18Z_MSC_RDPS_WindU_IsbL-0001_RLatLon0.09_PT053H.grib2 2026-04-19 20:56 288K
20260419T18Z_MSC_RDPS_WindU_IsbL-0005_RLatLon0.09_PT053H.grib2 2026-04-19 20:56 333K
20260419T18Z_MSC_RDPS_WindU_IsbL-0010_RLatLon0.09_PT053H.grib2 2026-04-19 20:56 347K
20260419T18Z_MSC_RDPS_WindU_IsbL-0020_RLatLon0.09_PT053H.grib2 2026-04-19 20:56 364K
20260419T18Z_MSC_RDPS_WindU_IsbL-0030_RLatLon0.09_PT053H.grib2 2026-04-19 20:56 363K
20260419T18Z_MSC_RDPS_WindU_IsbL-0050_RLatLon0.09_PT053H.grib2 2026-04-19 20:56 367K
20260419T18Z_MSC_RDPS_WindU_IsbL-0100_RLatLon0.09_PT053H.grib2 2026-04-19 20:56 451K
20260419T18Z_MSC_RDPS_WindU_IsbL-0150_RLatLon0.09_PT053H.grib2 2026-04-19 20:56 381K
20260419T18Z_MSC_RDPS_WindU_IsbL-0175_RLatLon0.09_PT053H.grib2 2026-04-19 20:56 427K
20260419T18Z_MSC_RDPS_WindU_IsbL-0200_RLatLon0.09_PT053H.grib2 2026-04-19 20:56 443K
20260419T18Z_MSC_RDPS_WindU_IsbL-0225_RLatLon0.09_PT053H.grib2 2026-04-19 20:56 446K
20260419T18Z_MSC_RDPS_WindU_IsbL-0250_RLatLon0.09_PT053H.grib2 2026-04-19 20:56 442K
20260419T18Z_MSC_RDPS_WindU_IsbL-0275_RLatLon0.09_PT053H.grib2 2026-04-19 20:56 354K
20260419T18Z_MSC_RDPS_WindU_IsbL-0300_RLatLon0.09_PT053H.grib2 2026-04-19 20:56 348K
20260419T18Z_MSC_RDPS_WindU_IsbL-0350_RLatLon0.09_PT053H.grib2 2026-04-19 20:56 356K
20260419T18Z_MSC_RDPS_WindU_IsbL-0400_RLatLon0.09_PT053H.grib2 2026-04-19 20:56 360K
20260419T18Z_MSC_RDPS_WindU_IsbL-0450_RLatLon0.09_PT053H.grib2 2026-04-19 20:56 465K
20260419T18Z_MSC_RDPS_WindU_IsbL-0500_RLatLon0.09_PT053H.grib2 2026-04-19 20:56 471K
20260419T18Z_MSC_RDPS_WindU_IsbL-0550_RLatLon0.09_PT053H.grib2 2026-04-19 20:56 477K
20260419T18Z_MSC_RDPS_WindU_IsbL-0600_RLatLon0.09_PT053H.grib2 2026-04-19 20:56 485K
20260419T18Z_MSC_RDPS_WindU_IsbL-0650_RLatLon0.09_PT053H.grib2 2026-04-19 20:56 500K
20260419T18Z_MSC_RDPS_WindU_IsbL-0700_RLatLon0.09_PT053H.grib2 2026-04-19 20:56 519K
20260419T18Z_MSC_RDPS_WindU_IsbL-0750_RLatLon0.09_PT053H.grib2 2026-04-19 20:56 532K
20260419T18Z_MSC_RDPS_WindU_IsbL-0800_RLatLon0.09_PT053H.grib2 2026-04-19 20:56 576K
20260419T18Z_MSC_RDPS_WindU_IsbL-0850_RLatLon0.09_PT053H.grib2 2026-04-19 20:56 627K
20260419T18Z_MSC_RDPS_WindU_IsbL-0875_RLatLon0.09_PT053H.grib2 2026-04-19 20:56 643K
20260419T18Z_MSC_RDPS_WindU_IsbL-0900_RLatLon0.09_PT053H.grib2 2026-04-19 20:56 652K
20260419T18Z_MSC_RDPS_WindU_IsbL-0925_RLatLon0.09_PT053H.grib2 2026-04-19 20:56 658K
20260419T18Z_MSC_RDPS_WindU_IsbL-0950_RLatLon0.09_PT053H.grib2 2026-04-19 20:56 656K
20260419T18Z_MSC_RDPS_WindU_IsbL-0970_RLatLon0.09_PT053H.grib2 2026-04-19 20:56 655K
20260419T18Z_MSC_RDPS_WindU_IsbL-0985_RLatLon0.09_PT053H.grib2 2026-04-19 20:56 653K
20260419T18Z_MSC_RDPS_WindU_IsbL-1000_RLatLon0.09_PT053H.grib2 2026-04-19 20:56 790K
20260419T18Z_MSC_RDPS_WindU_IsbL-1015_RLatLon0.09_PT053H.grib2 2026-04-19 20:56 786K
20260419T18Z_MSC_RDPS_WindV_AGL-10m_RLatLon0.09_PT053H.grib2 2026-04-19 20:56 436K
20260419T18Z_MSC_RDPS_WindV_AGL-120m_RLatLon0.09_PT053H.grib2 2026-04-19 20:56 417K
20260419T18Z_MSC_RDPS_WindV_AGL-40m_RLatLon0.09_PT053H.grib2 2026-04-19 20:56 539K
20260419T18Z_MSC_RDPS_WindV_AGL-80m_RLatLon0.09_PT053H.grib2 2026-04-19 20:56 535K
20260419T18Z_MSC_RDPS_WindV_IsbL-0001_RLatLon0.09_PT053H.grib2 2026-04-19 20:56 238K
20260419T18Z_MSC_RDPS_WindV_IsbL-0005_RLatLon0.09_PT053H.grib2 2026-04-19 20:56 330K
20260419T18Z_MSC_RDPS_WindV_IsbL-0010_RLatLon0.09_PT053H.grib2 2026-04-19 20:56 306K
20260419T18Z_MSC_RDPS_WindV_IsbL-0020_RLatLon0.09_PT053H.grib2 2026-04-19 20:56 366K
20260419T18Z_MSC_RDPS_WindV_IsbL-0030_RLatLon0.09_PT053H.grib2 2026-04-19 20:56 329K
20260419T18Z_MSC_RDPS_WindV_IsbL-0050_RLatLon0.09_PT053H.grib2 2026-04-19 20:56 365K
20260419T18Z_MSC_RDPS_WindV_IsbL-0100_RLatLon0.09_PT053H.grib2 2026-04-19 20:56 345K
20260419T18Z_MSC_RDPS_WindV_IsbL-0150_RLatLon0.09_PT053H.grib2 2026-04-19 20:56 399K
20260419T18Z_MSC_RDPS_WindV_IsbL-0175_RLatLon0.09_PT053H.grib2 2026-04-19 20:56 423K
20260419T18Z_MSC_RDPS_WindV_IsbL-0200_RLatLon0.09_PT053H.grib2 2026-04-19 20:56 342K
20260419T18Z_MSC_RDPS_WindV_IsbL-0225_RLatLon0.09_PT053H.grib2 2026-04-19 20:56 344K
20260419T18Z_MSC_RDPS_WindV_IsbL-0250_RLatLon0.09_PT053H.grib2 2026-04-19 20:56 341K
20260419T18Z_MSC_RDPS_WindV_IsbL-0275_RLatLon0.09_PT053H.grib2 2026-04-19 20:56 351K
20260419T18Z_MSC_RDPS_WindV_IsbL-0300_RLatLon0.09_PT053H.grib2 2026-04-19 20:56 347K
20260419T18Z_MSC_RDPS_WindV_IsbL-0350_RLatLon0.09_PT053H.grib2 2026-04-19 20:56 352K
20260419T18Z_MSC_RDPS_WindV_IsbL-0400_RLatLon0.09_PT053H.grib2 2026-04-19 20:56 360K
20260419T18Z_MSC_RDPS_WindV_IsbL-0450_RLatLon0.09_PT053H.grib2 2026-04-19 20:56 363K
20260419T18Z_MSC_RDPS_WindV_IsbL-0500_RLatLon0.09_PT053H.grib2 2026-04-19 20:56 472K
20260419T18Z_MSC_RDPS_WindV_IsbL-0550_RLatLon0.09_PT053H.grib2 2026-04-19 20:56 476K
20260419T18Z_MSC_RDPS_WindV_IsbL-0600_RLatLon0.09_PT053H.grib2 2026-04-19 20:56 484K
20260419T18Z_MSC_RDPS_WindV_IsbL-0650_RLatLon0.09_PT053H.grib2 2026-04-19 20:56 498K
20260419T18Z_MSC_RDPS_WindV_IsbL-0700_RLatLon0.09_PT053H.grib2 2026-04-19 20:56 503K
20260419T18Z_MSC_RDPS_WindV_IsbL-0750_RLatLon0.09_PT053H.grib2 2026-04-19 20:56 529K
20260419T18Z_MSC_RDPS_WindV_IsbL-0800_RLatLon0.09_PT053H.grib2 2026-04-19 20:56 574K
20260419T18Z_MSC_RDPS_WindV_IsbL-0850_RLatLon0.09_PT053H.grib2 2026-04-19 20:56 624K
20260419T18Z_MSC_RDPS_WindV_IsbL-0875_RLatLon0.09_PT053H.grib2 2026-04-19 20:56 640K
20260419T18Z_MSC_RDPS_WindV_IsbL-0900_RLatLon0.09_PT053H.grib2 2026-04-19 20:56 650K
20260419T18Z_MSC_RDPS_WindV_IsbL-0925_RLatLon0.09_PT053H.grib2 2026-04-19 20:56 656K
20260419T18Z_MSC_RDPS_WindV_IsbL-0950_RLatLon0.09_PT053H.grib2 2026-04-19 20:56 655K
20260419T18Z_MSC_RDPS_WindV_IsbL-0970_RLatLon0.09_PT053H.grib2 2026-04-19 20:56 656K
20260419T18Z_MSC_RDPS_WindV_IsbL-0985_RLatLon0.09_PT053H.grib2 2026-04-19 20:56 655K
20260419T18Z_MSC_RDPS_WindV_IsbL-1000_RLatLon0.09_PT053H.grib2 2026-04-19 20:56 791K
20260419T18Z_MSC_RDPS_WindV_IsbL-1015_RLatLon0.09_PT053H.grib2 2026-04-19 20:56 787K